| time (UTC) | temp F | wind direction | speed MPH | gust MPH | rain 1hr in | rain 24hr in | rain mn in | humidity % | barometer mb |
| 20260510221029 | 69 | 54 | 1.0 | 6.0 | 0.00 | 0.00 | 0.00 | 68 | 980.2 |
| 20260510220526 | 70 | 47 | 3.0 | 8.0 | 0.00 | 0.00 | 0.00 | 68 | 980.1 |
| 20260510220021 | 70 | 347 | 1.0 | 4.0 | 0.00 | 0.00 | 0.00 | 66 | 980.0 |
| 20260510215519 | 69 | 247 | 1.0 | 7.0 | 0.00 | 0.00 | 0.00 | 68 | 980.2 |
| 20260510215017 | 70 | 330 | 3.0 | 4.0 | 0.00 | 0.00 | 0.00 | 69 | 980.0 |
| 20260510214514 | 70 | 59 | 3.0 | 7.0 | 0.00 | 0.00 | 0.00 | 67 | 980.1 |
| 20260510214010 | 70 | 41 | 3.0 | 4.0 | 0.00 | 0.00 | 0.00 | 69 | 980.0 |
| 20260510213507 | 70 | 298 | 4.0 | 4.0 | 0.00 | 0.00 | 0.00 | 71 | 979.9 |
| 20260510213003 | 69 | 25 | 2.0 | 2.0 | 0.00 | 0.00 | 0.00 | 69 | 979.8 |
| 20260510212500 | 69 | 338 | 1.0 | 2.0 | 0.00 | 0.00 | 0.00 | 72 | 979.8 |
| 20260510211957 | 69 | 18 | 1.0 | 3.0 | 0.00 | 0.00 | 0.00 | 72 | 979.6 |
| 20260510211454 | 70 | 32 | 2.0 | 7.0 | 0.00 | 0.00 | 0.00 | 69 | 979.5 |
| 20260510210954 | 70 | 28 | 2.0 | 8.0 | 0.00 | 0.00 | 0.00 | 71 | 979.6 |
| 20260510210450 | 70 | 36 | 3.0 | 4.0 | 0.00 | 0.00 | 0.00 | 71 | 979.5 |
| 20260510205949 | 69 | 46 | 2.0 | 8.0 | 0.00 | 0.00 | 0.00 | 74 | 979.7 |
| 20260510205445 | 70 | 78 | 4.0 | 6.0 | 0.00 | 0.00 | 0.00 | 71 | 979.7 |
| 20260510204941 | 70 | 329 | 5.0 | 7.0 | 0.00 | 0.00 | 0.00 | 71 | 979.7 |
| 20260510204437 | 69 | 333 | 4.0 | 6.0 | 0.00 | 0.00 | 0.00 | 72 | 979.9 |
| 20260510203933 | 69 | 355 | 2.0 | 2.0 | 0.00 | 0.00 | 0.00 | 74 | 979.8 |
| 20260510203431 | 70 | 17 | 2.0 | 2.0 | 0.00 | 0.00 | 0.00 | 70 | 979.8 |
| 20260510202926 | 69 | 7 | 1.0 | 2.0 | 0.00 | 0.00 | 0.00 | 73 | 979.9 |
| 20260510202422 | 70 | 344 | 1.0 | 6.0 | 0.00 | 0.00 | 0.00 | 73 | 979.9 |
| 20260510201919 | 71 | 330 | 3.0 | 4.0 | 0.00 | 0.00 | 0.00 | 70 | 979.7 |
| 20260510201416 | 70 | 6 | 1.0 | 3.0 | 0.00 | 0.00 | 0.00 | 73 | 979.8 |
| 20260510200912 | 69 | 44 | 2.0 | 4.0 | 0.00 | 0.00 | 0.00 | 74 | 979.7 |
| 20260510200413 | 70 | 339 | 2.0 | 7.0 | 0.00 | 0.00 | 0.00 | 72 | 979.8 |
| 20260510195906 | 70 | 33 | 3.0 | 6.0 | 0.00 | 0.00 | 0.00 | 73 | 979.9 |
| 20260510195403 | 69 | 50 | 3.0 | 6.0 | 0.00 | 0.00 | 0.00 | 74 | 979.9 |
| 20260510194858 | 69 | 27 | 0.0 | 3.0 | 0.00 | 0.00 | 0.00 | 74 | 980.0 |
| 20260510194355 | 69 | 61 | 3.0 | 4.0 | 0.00 | 0.00 | 0.00 | 75 | 979.9 |
| 20260510193851 | 69 | 358 | 1.0 | 2.0 | 0.00 | 0.00 | 0.00 | 74 | 980.2 |
| 20260510193346 | 69 | 5 | 0.0 | 2.0 | 0.00 | 0.00 | 0.00 | 75 | 979.9 |
| 20260510192842 | 69 | 356 | 2.0 | 4.0 | 0.00 | 0.00 | 0.00 | 73 | 980.0 |
| 20260510192337 | 69 | 0 | 3.0 | 6.0 | 0.00 | 0.00 | 0.00 | 77 | 980.1 |
| 20260510191833 | 69 | 56 | 5.0 | 6.0 | 0.00 | 0.00 | 0.00 | 75 | 980.1 |
| 20260510191329 | 68 | 331 | 2.0 | 4.0 | 0.00 | 0.00 | 0.00 | 76 | 980.0 |
| 20260510190827 | 69 | 356 | 2.0 | 6.0 | 0.00 | 0.00 | 0.00 | 76 | 980.1 |
| 20260510190325 | 69 | 354 | 2.0 | 3.0 | 0.00 | 0.00 | 0.00 | 76 | 980.0 |
| 20260510185820 | 69 | 329 | 2.0 | 6.0 | 0.00 | 0.00 | 0.00 | 75 | 979.9 |
| 20260510185319 | 71 | 335 | 2.0 | 4.0 | 0.00 | 0.00 | 0.00 | 74 | 979.8 |
| 20260510184815 | 70 | 7 | 2.0 | 7.0 | 0.00 | 0.00 | 0.00 | 71 | 979.7 |
| 20260510184312 | 70 | 344 | 0.0 | 3.0 | 0.00 | 0.00 | 0.00 | 69 | 979.7 |
| 20260510183806 | 70 | 293 | 1.0 | 1.0 | 0.00 | 0.00 | 0.00 | 68 | 979.4 |
| 20260510183302 | 71 | 121 | 0.0 | 1.0 | 0.00 | 0.00 | 0.00 | 65 | 979.4 |
| 20260510182758 | 71 | 122 | 0.0 | 2.0 | 0.00 | 0.00 | 0.00 | 63 | 979.5 |
| 20260510182254 | 71 | 188 | 2.0 | 2.0 | 0.00 | 0.00 | 0.00 | 60 | 979.4 |
| 20260510181751 | 71 | 81 | 2.0 | 3.0 | 0.00 | 0.00 | 0.00 | 61 | 979.1 |
| 20260510181248 | 71 | 323 | 2.0 | 7.0 | 0.00 | 0.00 | 0.00 | 61 | 979.2 |
| 20260510180744 | 72 | 68 | 2.0 | 3.0 | 0.00 | 0.00 | 0.00 | 59 | 979.1 |
| 20260510180241 | 72 | 294 | 2.0 | 3.0 | 0.00 | 0.00 | 0.00 | 64 | 979.1 |
| 20260510175738 | 73 | 134 | 2.0 | 3.0 | 0.00 | 0.00 | 0.00 | 60 | 979.1 |
| 20260510175233 | 73 | 161 | 2.0 | 4.0 | 0.00 | 0.00 | 0.00 | 59 | 979.2 |
| 20260510174731 | 72 | 72 | 0.0 | 2.0 | 0.00 | 0.00 | 0.00 | 59 | 979.1 |
| 20260510174228 | 73 | 43 | 1.0 | 2.0 | 0.00 | 0.00 | 0.00 | 60 | 979.0 |
| 20260510173724 | 73 | 7 | 4.0 | 7.0 | 0.00 | 0.00 | 0.00 | 58 | 978.8 |
| 20260510173220 | 72 | 62 | 2.0 | 3.0 | 0.00 | 0.00 | 0.00 | 63 | 978.8 |
| 20260510172715 | 73 | 70 | 3.0 | 4.0 | 0.00 | 0.00 | 0.00 | 61 | 979.1 |
| 20260510172212 | 72 | 100 | 2.0 | 2.0 | 0.00 | 0.00 | 0.00 | 62 | 979.2 |
| 20260510171709 | 72 | 86 | 3.0 | 4.0 | 0.00 | 0.00 | 0.00 | 63 | 979.1 |
| 20260510171206 | 72 | 108 | 1.0 | 6.0 | 0.00 | 0.00 | 0.00 | 65 | 979.3 |
| 20260510170703 | 72 | 129 | 4.0 | 6.0 | 0.00 | 0.00 | 0.00 | 62 | 979.1 |
| 20260510170159 | 71 | 182 | 0.0 | 4.0 | 0.00 | 0.00 | 0.00 | 62 | 979.4 |
| 20260510165655 | 72 | 155 | 1.0 | 2.0 | 0.00 | 0.00 | 0.00 | 61 | 979.4 |
| 20260510165151 | 71 | 201 | 0.0 | 0.0 | 0.00 | 0.00 | 0.00 | 60 | 979.2 |
| 20260510164649 | 71 | 201 | 0.0 | 0.0 | 0.00 | 0.00 | 0.00 | 60 | 979.4 |
| 20260510164146 | 71 | 43 | 0.0 | 1.0 | 0.00 | 0.00 | 0.00 | 61 | 979.4 |
| 20260510163641 | 71 | 35 | 2.0 | 3.0 | 0.00 | 0.00 | 0.00 | 60 | 979.4 |
| 20260510163137 | 71 | 146 | 0.0 | 3.0 | 0.00 | 0.00 | 0.00 | 58 | 979.4 |
| 20260510162637 | 72 | 59 | 1.0 | 2.0 | 0.00 | 0.00 | 0.00 | 58 | 979.3 |
| 20260510162134 | 72 | 114 | 2.0 | 2.0 | 0.00 | 0.00 | 0.00 | 62 | 979.3 |
| 20260510161630 | 72 | 211 | 1.0 | 3.0 | 0.00 | 0.00 | 0.00 | 57 | 979.2 |
| 20260510161127 | 72 | 109 | 3.0 | 4.0 | 0.00 | 0.00 | 0.00 | 57 | 979.4 |
| 20260510160624 | 72 | 318 | 2.0 | 9.0 | 0.00 | 0.00 | 0.00 | 60 | 979.4 |
| 20260510160124 | 72 | 326 | 2.0 | 7.0 | 0.00 | 0.00 | 0.00 | 54 | 979.4 |
| 20260510155620 | 73 | 196 | 2.0 | 8.0 | 0.00 | 0.00 | 0.00 | 56 | 979.2 |
| 20260510155116 | 75 | 125 | 10.0 | 13.0 | 0.00 | 0.00 | 0.00 | 53 | 979.1 |
| 20260510154612 | 73 | 184 | 4.0 | 6.0 | 0.00 | 0.00 | 0.00 | 58 | 979.1 |
| 20260510154107 | 74 | 222 | 3.0 | 4.0 | 0.00 | 0.00 | 0.00 | 57 | 979.3 |
| 20260510153603 | 73 | 259 | 3.0 | 3.0 | 0.00 | 0.00 | 0.00 | 59 | 979.4 |
| 20260510153100 | 73 | 111 | 3.0 | 4.0 | 0.00 | 0.00 | 0.00 | 58 | 979.3 |
| 20260510152556 | 73 | 102 | 4.0 | 4.0 | 0.00 | 0.00 | 0.00 | 58 | 979.4 |
| 20260510152053 | 73 | 133 | 2.0 | 4.0 | 0.00 | 0.00 | 0.00 | 58 | 979.5 |
| 20260510151550 | 72 | 302 | 0.0 | 2.0 | 0.00 | 0.00 | 0.00 | 59 | 979.6 |
| 20260510151047 | 73 | 110 | 1.0 | 3.0 | 0.00 | 0.00 | 0.00 | 60 | 979.4 |
| 20260510150542 | 72 | 40 | 3.0 | 3.0 | 0.00 | 0.00 | 0.00 | 65 | 979.5 |
| 20260510150038 | 71 | 173 | 2.0 | 6.0 | 0.00 | 0.00 | 0.00 | 62 | 979.5 |
| 20260510145535 | 71 | 274 | 2.0 | 6.0 | 0.00 | 0.00 | 0.00 | 65 | 979.4 |
| 20260510145032 | 71 | 118 | 1.0 | 2.0 | 0.00 | 0.00 | 0.00 | 64 | 979.3 |
| 20260510144528 | 71 | 187 | 4.0 | 8.0 | 0.00 | 0.00 | 0.00 | 65 | 979.5 |
| 20260510144024 | 71 | 121 | 3.0 | 6.0 | 0.00 | 0.00 | 0.00 | 65 | 979.5 |
| 20260510143520 | 70 | 173 | 2.0 | 4.0 | 0.00 | 0.00 | 0.00 | 65 | 979.5 |
| 20260510143016 | 70 | 173 | 2.0 | 4.0 | 0.00 | 0.00 | 0.00 | 65 | 979.5 |
| 20260510142513 | 69 | 140 | 2.0 | 3.0 | 0.00 | 0.00 | 0.00 | 63 | 979.2 |
| 20260510142010 | 69 | 92 | 2.0 | 3.0 | 0.00 | 0.00 | 0.00 | 65 | 979.3 |
| 20260510141506 | 69 | 105 | 1.0 | 3.0 | 0.00 | 0.00 | 0.00 | 64 | 979.4 |
| 20260510141004 | 69 | 121 | 5.0 | 6.0 | 0.00 | 0.00 | 0.00 | 64 | 979.2 |
| 20260510140500 | 68 | 108 | 2.0 | 3.0 | 0.00 | 0.00 | 0.00 | 67 | 979.2 |
| 20260510135959 | 68 | 108 | 2.0 | 3.0 | 0.00 | 0.00 | 0.00 | 67 | 979.3 |
| 20260510135455 | 68 | 109 | 4.0 | 7.0 | 0.00 | 0.00 | 0.00 | 65 | 979.2 |
| 20260510134952 | 68 | 109 | 3.0 | 4.0 | 0.00 | 0.00 | 0.00 | 67 | 979.4 |
| 20260510134449 | 67 | 100 | 1.0 | 4.0 | 0.00 | 0.00 | 0.00 | 69 | 979.3 |
| 20260510133946 | 67 | 109 | 1.0 | 6.0 | 0.00 | 0.00 | 0.00 | 69 | 979.5 |
| 20260510133442 | 67 | 104 | 2.0 | 3.0 | 0.00 | 0.00 | 0.00 | 70 | 979.5 |
| 20260510132937 | 67 | 107 | 2.0 | 4.0 | 0.00 | 0.00 | 0.00 | 69 | 979.7 |
| 20260510132435 | 67 | 107 | 2.0 | 2.0 | 0.00 | 0.00 | 0.00 | 70 | 979.8 |
| 20260510131932 | 66 | 112 | 2.0 | 7.0 | 0.00 | 0.00 | 0.00 | 70 | 979.7 |
| 20260510131430 | 66 | 113 | 1.0 | 4.0 | 0.00 | 0.00 | 0.00 | 71 | 979.6 |
| 20260510130926 | 66 | 97 | 2.0 | 3.0 | 0.00 | 0.00 | 0.00 | 72 | 979.7 |
| 20260510130423 | 65 | 102 | 2.0 | 6.0 | 0.00 | 0.00 | 0.00 | 69 | 979.8 |
| 20260510125920 | 65 | 115 | 1.0 | 4.0 | 0.00 | 0.00 | 0.00 | 75 | 979.7 |
| 20260510125416 | 65 | 66 | 2.0 | 3.0 | 0.00 | 0.00 | 0.00 | 70 | 979.8 |
| 20260510124913 | 65 | 124 | 1.0 | 4.0 | 0.00 | 0.00 | 0.00 | 70 | 979.7 |
| 20260510124404 | 64 | 104 | 1.0 | 2.0 | 0.00 | 0.00 | 0.00 | 74 | 979.6 |
| 20260510123900 | 64 | 104 | 3.0 | 4.0 | 0.00 | 0.00 | 0.00 | 74 | 979.8 |
| 20260510123355 | 63 | 102 | 2.0 | 3.0 | 0.00 | 0.00 | 0.00 | 76 | 979.6 |
| 20260510122852 | 63 | 110 | 4.0 | 6.0 | 0.00 | 0.00 | 0.00 | 76 | 979.4 |
| 20260510122347 | 63 | 94 | 1.0 | 3.0 | 0.00 | 0.00 | 0.00 | 77 | 979.4 |
| 20260510121844 | 60 | 178 | 1.0 | 2.0 | 0.00 | 0.00 | 0.00 | 86 | 979.2 |
| 20260510121342 | 57 | 182 | 1.0 | 1.0 | 0.00 | 0.00 | 0.00 | 91 | 979.3 |
| 20260510120839 | 55 | 182 | 0.0 | 1.0 | 0.00 | 0.00 | 0.00 | 93 | 979.1 |
| 20260510120336 | 52 | 185 | 0.0 | 0.0 | 0.00 | 0.00 | 0.00 | 95 | 979.3 |
| 20260510115831 | 50 | 161 | 0.0 | 0.0 | 0.00 | 0.00 | 0.00 | 99 | 979.1 |
| 20260510115329 | 50 | 161 | 0.0 | 1.0 | 0.00 | 0.00 | 0.00 | 99 | 979.0 |
| 20260510114824 | 49 | 161 | 0.0 | 0.0 | 0.00 | 0.00 | 0.00 | 99 | 979.0 |
| 20260510114322 | 48 | 161 | 0.0 | 0.0 | 0.00 | 0.00 | 0.00 | 99 | 978.7 |
| 20260510113817 | 48 | 161 | 0.0 | 0.0 | 0.00 | 0.00 | 0.00 | 99 | 978.6 |
| 20260510113314 | 0 | 0.0 | 0.0 | 0.00 | 0.00 | 0.00 | 978.6 | ||
| 20260510112811 | 0 | 0.0 | 0.0 | 0.00 | 0.00 | 0.00 | 978.4 | ||
| 20260510112307 | 0 | 0.0 | 0.0 | 0.00 | 0.00 | 0.00 | 978.5 | ||
| 20260510111803 | 0 | 0.0 | 0.0 | 0.00 | 0.00 | 0.00 | 978.4 | ||
| 20260510111300 | 0 | 0.0 | 0.0 | 0.00 | 0.00 | 0.00 | 978.6 | ||
| 20260510110759 | 0 | 0.0 | 0.0 | 0.00 | 0.00 | 0.00 | 978.4 | ||
| 20260510110258 | 0 | 0.0 | 0.0 | 0.00 | 0.00 | 0.00 | 978.4 | ||
| 20260510105758 | 0 | 0.0 | 0.0 | 0.00 | 0.00 | 0.00 | 978.6 | ||
| 20260510105252 | 0 | 0.0 | 0.0 | 0.00 | 0.00 | 0.00 | 978.5 | ||
| 20260510104749 | 0 | 0.0 | 0.0 | 0.00 | 0.00 | 0.00 | 978.5 | ||
| 20260510104247 | 0 | 0.0 | 0.0 | 0.00 | 0.00 | 0.00 | 978.4 | ||
| 20260510103743 | 0 | 0.0 | 0.0 | 0.00 | 0.00 | 0.00 | 978.2 | ||
| 20260510103240 | 0 | 0.0 | 0.0 | 0.00 | 0.00 | 0.00 | 978.3 | ||
| 20260510102735 | 0 | 0.0 | 0.0 | 0.00 | 0.00 | 0.00 | 978.0 | ||
| 20260510102230 | 0 | 0.0 | 0.0 | 0.00 | 0.00 | 0.00 | 978.1 | ||
| 20260510101728 | 0 | 0.0 | 0.0 | 0.00 | 0.00 | 0.00 | 977.9 | ||
| 20260510101227 | 0 | 0.0 | 0.0 | 0.00 | 0.00 | 0.00 | 977.9 | ||
| 20260510100722 | 0 | 0.0 | 0.0 | 0.00 | 0.00 | 0.00 | 977.8 | ||
| 20260510100221 | 0 | 0.0 | 0.0 | 0.00 | 0.00 | 0.00 | 977.9 | ||
| 20260510095720 | 0 | 0.0 | 0.0 | 0.00 | 0.00 | 0.00 | 977.8 | ||
| 20260510095216 | 0 | 0.0 | 0.0 | 0.00 | 0.00 | 0.00 | 977.7 | ||
| 20260510094715 | 43 | 161 | 0.0 | 0.0 | 0.00 | 0.00 | 0.00 | 99 | 977.5 |
| 20260510094211 | 43 | 161 | 0.0 | 0.0 | 0.00 | 0.00 | 0.00 | 99 | 977.6 |
| 20260510093707 | 42 | 161 | 0.0 | 0.0 | 0.00 | 0.00 | 0.00 | 99 | 977.7 |
| 20260510093204 | 43 | 161 | 0.0 | 0.0 | 0.00 | 0.00 | 0.00 | 99 | 977.6 |
| 20260510092700 | 42 | 161 | 0.0 | 0.0 | 0.00 | 0.00 | 0.00 | 99 | 977.6 |
| 20260510092156 | 43 | 161 | 0.0 | 0.0 | 0.00 | 0.00 | 0.00 | 99 | 977.6 |
| 20260510091652 | 43 | 161 | 0.0 | 0.0 | 0.00 | 0.00 | 0.00 | 99 | 977.4 |
| 20260510091148 | 42 | 161 | 0.0 | 1.0 | 0.00 | 0.00 | 0.00 | 99 | 977.2 |
| 20260510090645 | 44 | 161 | 0.0 | 0.0 | 0.00 | 0.00 | 0.00 | 99 | 977.3 |
| 20260510090142 | 43 | 161 | 0.0 | 0.0 | 0.00 | 0.00 | 0.00 | 99 | 977.2 |
| 20260510085637 | 43 | 161 | 0.0 | 0.0 | 0.00 | 0.00 | 0.00 | 99 | 977.2 |
| 20260510085132 | 43 | 161 | 0.0 | 0.0 | 0.00 | 0.00 | 0.00 | 99 | 977.0 |
| 20260510084629 | 42 | 161 | 0.0 | 0.0 | 0.00 | 0.00 | 0.00 | 99 | 977.2 |
| 20260510084126 | 44 | 161 | 0.0 | 0.0 | 0.00 | 0.00 | 0.00 | 99 | 977.1 |
| 20260510083622 | 43 | 161 | 0.0 | 0.0 | 0.00 | 0.00 | 0.00 | 99 | 977.0 |
| 20260510083119 | 43 | 161 | 0.0 | 0.0 | 0.00 | 0.00 | 0.00 | 99 | 977.1 |
| 20260510082615 | 44 | 161 | 0.0 | 0.0 | 0.00 | 0.00 | 0.00 | 99 | 977.0 |
| 20260510082111 | 44 | 161 | 0.0 | 0.0 | 0.00 | 0.00 | 0.00 | 99 | 976.9 |
| 20260510081606 | 43 | 161 | 0.0 | 0.0 | 0.00 | 0.00 | 0.00 | 99 | 977.2 |
| 20260510081102 | 43 | 161 | 0.0 | 0.0 | 0.00 | 0.00 | 0.00 | 99 | 977.1 |
| 20260510080601 | 43 | 161 | 0.0 | 0.0 | 0.00 | 0.00 | 0.00 | 99 | 976.9 |
| 20260510080058 | 43 | 161 | 0.0 | 0.0 | 0.00 | 0.00 | 0.00 | 99 | 977.1 |
| 20260510075555 | 44 | 161 | 0.0 | 0.0 | 0.00 | 0.00 | 0.00 | 99 | 976.9 |
| 20260510075052 | 43 | 161 | 0.0 | 0.0 | 0.00 | 0.00 | 0.00 | 99 | 976.9 |
| 20260510074550 | 43 | 161 | 0.0 | 0.0 | 0.00 | 0.00 | 0.00 | 99 | 977.0 |
| 20260510074045 | 44 | 161 | 0.0 | 0.0 | 0.00 | 0.00 | 0.00 | 99 | 976.9 |
| 20260510073541 | 43 | 161 | 0.0 | 0.0 | 0.00 | 0.00 | 0.00 | 99 | 976.8 |
| 20260510073039 | 0 | 0.0 | 0.0 | 0.00 | 0.00 | 0.00 | 977.0 | ||
| 20260510072535 | 43 | 161 | 0.0 | 0.0 | 0.00 | 0.00 | 0.00 | 99 | 976.9 |
| 20260510072031 | 43 | 161 | 0.0 | 0.0 | 0.00 | 0.00 | 0.00 | 99 | 976.9 |
| 20260510071527 | 43 | 161 | 0.0 | 0.0 | 0.00 | 0.00 | 0.00 | 99 | 977.1 |
| 20260510071026 | 43 | 161 | 0.0 | 0.0 | 0.00 | 0.00 | 0.00 | 99 | 977.2 |
| 20260510070522 | 43 | 161 | 0.0 | 0.0 | 0.00 | 0.00 | 0.00 | 99 | 977.1 |
| 20260510070019 | 43 | 161 | 0.0 | 0.0 | 0.00 | 0.00 | 0.00 | 99 | 976.9 |
| 20260510065515 | 43 | 161 | 0.0 | 0.0 | 0.00 | 0.00 | 0.00 | 99 | 976.9 |
| 20260510065011 | 44 | 161 | 0.0 | 0.0 | 0.00 | 0.00 | 0.00 | 99 | 976.9 |
| 20260510064508 | 44 | 161 | 0.0 | 0.0 | 0.00 | 0.00 | 0.00 | 99 | 976.9 |
| 20260510064005 | 44 | 161 | 0.0 | 0.0 | 0.00 | 0.00 | 0.00 | 99 | 976.8 |
| 20260510063502 | 43 | 161 | 0.0 | 0.0 | 0.00 | 0.00 | 0.00 | 99 | 977.0 |
| 20260510062959 | 44 | 161 | 0.0 | 0.0 | 0.00 | 0.00 | 0.00 | 99 | 976.9 |
| 20260510062455 | 44 | 161 | 0.0 | 0.0 | 0.00 | 0.00 | 0.00 | 99 | 976.9 |
| 20260510061949 | 44 | 161 | 0.0 | 0.0 | 0.00 | 0.00 | 0.00 | 99 | 977.0 |
| 20260510061446 | 43 | 161 | 0.0 | 0.0 | 0.00 | 0.00 | 0.00 | 99 | 977.2 |
| 20260510060943 | 44 | 161 | 0.0 | 0.0 | 0.00 | 0.00 | 0.00 | 99 | 977.3 |
| 20260510060440 | 45 | 161 | 0.0 | 0.0 | 0.00 | 0.00 | 0.00 | 99 | 977.2 |
| 20260510055936 | 44 | 161 | 0.0 | 0.0 | 0.00 | 0.00 | 0.00 | 99 | 977.1 |
| 20260510055432 | 44 | 161 | 0.0 | 0.0 | 0.00 | 0.00 | 0.00 | 99 | 977.1 |
| 20260510054930 | 44 | 161 | 0.0 | 0.0 | 0.00 | 0.00 | 0.00 | 99 | 977.3 |
| 20260510054425 | 44 | 161 | 0.0 | 0.0 | 0.00 | 0.00 | 0.00 | 99 | 977.3 |
| 20260510053921 | 44 | 161 | 0.0 | 0.0 | 0.00 | 0.00 | 0.00 | 99 | 977.4 |
| 20260510053416 | 45 | 161 | 0.0 | 0.0 | 0.00 | 0.00 | 0.00 | 99 | 977.4 |
| 20260510052913 | 45 | 161 | 0.0 | 0.0 | 0.00 | 0.00 | 0.00 | 99 | 977.5 |
| 20260510052409 | 45 | 161 | 0.0 | 0.0 | 0.00 | 0.00 | 0.00 | 99 | 977.4 |
| 20260510051905 | 44 | 161 | 0.0 | 0.0 | 0.00 | 0.00 | 0.00 | 99 | 977.5 |
| 20260510051402 | 44 | 161 | 0.0 | 0.0 | 0.00 | 0.00 | 0.00 | 99 | 977.6 |
| 20260510050858 | 45 | 161 | 0.0 | 0.0 | 0.00 | 0.00 | 0.00 | 99 | 977.5 |
| 20260510050355 | 45 | 161 | 0.0 | 0.0 | 0.00 | 0.00 | 0.00 | 99 | 977.5 |
| 20260510045852 | 45 | 161 | 0.0 | 0.0 | 0.00 | 0.00 | 0.00 | 99 | 977.5 |
| 20260510045348 | 45 | 161 | 0.0 | 0.0 | 0.00 | 0.00 | 0.00 | 99 | 977.4 |
| 20260510044846 | 45 | 161 | 0.0 | 0.0 | 0.00 | 0.00 | 0.00 | 99 | 977.3 |
| 20260510044343 | 46 | 161 | 0.0 | 0.0 | 0.00 | 0.00 | 0.00 | 99 | 977.2 |
| 20260510043839 | 45 | 161 | 0.0 | 0.0 | 0.00 | 0.00 | 0.00 | 99 | 977.3 |
| 20260510043335 | 46 | 161 | 0.0 | 0.0 | 0.00 | 0.00 | 0.00 | 99 | 977.5 |
| 20260510042833 | 45 | 161 | 0.0 | 0.0 | 0.00 | 0.00 | 0.00 | 99 | 977.4 |
| 20260510042329 | 46 | 161 | 0.0 | 0.0 | 0.00 | 0.00 | 0.00 | 99 | 977.3 |
| 20260510041825 | 46 | 161 | 0.0 | 0.0 | 0.00 | 0.00 | 0.00 | 99 | 977.4 |
| 20260510041323 | 46 | 161 | 0.0 | 0.0 | 0.00 | 0.00 | 0.00 | 99 | 977.2 |
| 20260510040820 | 47 | 161 | 0.0 | 0.0 | 0.00 | 0.00 | 0.00 | 99 | 977.1 |
| 20260510040316 | 47 | 161 | 0.0 | 0.0 | 0.00 | 0.00 | 0.00 | 99 | 977.0 |
| 20260510035812 | 47 | 161 | 0.0 | 0.0 | 0.00 | 0.00 | 0.00 | 99 | 977.1 |
| 20260510035308 | 46 | 161 | 0.0 | 0.0 | 0.00 | 0.00 | 0.00 | 99 | 976.9 |
| 20260510034804 | 46 | 161 | 0.0 | 0.0 | 0.00 | 0.00 | 0.00 | 99 | 976.9 |
| 20260510034301 | 47 | 161 | 0.0 | 0.0 | 0.00 | 0.00 | 0.00 | 99 | 976.7 |
| 20260510033758 | 47 | 161 | 0.0 | 0.0 | 0.00 | 0.00 | 0.00 | 99 | 977.0 |
| 20260510033255 | 47 | 161 | 0.0 | 0.0 | 0.00 | 0.00 | 0.00 | 99 | 976.8 |
| 20260510032751 | 47 | 161 | 0.0 | 0.0 | 0.00 | 0.00 | 0.00 | 99 | 976.7 |
| 20260510032248 | 47 | 161 | 0.0 | 0.0 | 0.00 | 0.00 | 0.00 | 99 | 977.0 |
| 20260510031743 | 47 | 161 | 0.0 | 0.0 | 0.00 | 0.00 | 0.00 | 99 | 976.8 |
| 20260510031239 | 48 | 161 | 0.0 | 0.0 | 0.00 | 0.00 | 0.00 | 99 | 976.7 |
| 20260510030739 | 47 | 161 | 0.0 | 0.0 | 0.00 | 0.00 | 0.00 | 98 | 976.7 |
| 20260510030236 | 48 | 161 | 0.0 | 0.0 | 0.00 | 0.00 | 0.00 | 98 | 976.7 |
| 20260510025733 | 48 | 161 | 0.0 | 0.0 | 0.00 | 0.00 | 0.00 | 98 | 976.5 |
| 20260510025231 | 0 | 0.0 | 0.0 | 0.00 | 0.00 | 0.00 | 976.7 | ||
| 20260510024728 | 49 | 161 | 0.0 | 0.0 | 0.00 | 0.00 | 0.00 | 97 | 976.7 |
| 20260510024224 | 49 | 161 | 0.0 | 0.0 | 0.00 | 0.00 | 0.00 | 97 | 976.3 |
| 20260510023720 | 49 | 161 | 0.0 | 0.0 | 0.00 | 0.00 | 0.00 | 98 | 976.3 |
| 20260510023217 | 49 | 161 | 0.0 | 0.0 | 0.00 | 0.00 | 0.00 | 97 | 976.4 |
| 20260510022714 | 0 | 0.0 | 0.0 | 0.00 | 0.00 | 0.00 | 976.4 | ||
| 20260510022208 | 0 | 0.0 | 0.0 | 0.00 | 0.00 | 0.00 | 976.3 | ||
| 20260510021703 | 0 | 0.0 | 0.0 | 0.00 | 0.00 | 0.00 | 976.3 | ||
| 20260510021201 | 0 | 0.0 | 0.0 | 0.00 | 0.00 | 0.00 | 976.2 | ||
| 20260510020655 | 0 | 0.0 | 0.0 | 0.00 | 0.00 | 0.00 | 976.1 | ||
| 20260510020151 | 51 | 161 | 0.0 | 0.0 | 0.00 | 0.00 | 0.00 | 95 | 976.3 |
| 20260510015647 | 51 | 161 | 0.0 | 0.0 | 0.00 | 0.00 | 0.00 | 95 | 976.1 |
| 20260510015144 | 51 | 161 | 0.0 | 0.0 | 0.00 | 0.00 | 0.00 | 93 | 975.9 |
| 20260510014639 | 0 | 0.0 | 0.0 | 0.00 | 0.00 | 0.00 | 975.8 | ||
| 20260510014136 | 0 | 0.0 | 0.0 | 0.00 | 0.00 | 0.00 | 975.9 | ||
| 20260510013631 | 0 | 0.0 | 0.0 | 0.00 | 0.00 | 0.00 | 975.6 | ||
| 20260510013127 | 0 | 0.0 | 0.0 | 0.00 | 0.00 | 0.00 | 975.6 | ||
| 20260510012626 | 0 | 0.0 | 0.0 | 0.00 | 0.00 | 0.00 | 975.6 | ||
| 20260510012123 | 0 | 0.0 | 0.0 | 0.00 | 0.00 | 0.00 | 975.6 | ||
| 20260510011622 | 0 | 0.0 | 0.0 | 0.00 | 0.00 | 0.00 | 975.6 | ||
| 20260510011118 | 0 | 0.0 | 0.0 | 0.00 | 0.00 | 0.00 | 975.5 | ||
| 20260510010615 | 0 | 0.0 | 0.0 | 0.00 | 0.00 | 0.00 | 975.3 | ||
| 20260510010112 | 55 | 161 | 0.0 | 0.0 | 0.00 | 0.00 | 0.00 | 87 | 975.4 |
| 20260510005607 | 55 | 161 | 0.0 | 0.0 | 0.00 | 0.00 | 0.00 | 87 | 975.0 |
| 20260510005105 | 56 | 161 | 0.0 | 0.0 | 0.00 | 0.00 | 0.00 | 85 | 975.1 |
| 20260510004603 | 0 | 0.0 | 0.0 | 0.00 | 0.00 | 0.00 | 975.1 | ||
| 20260510004101 | 58 | 161 | 0.0 | 0.0 | 0.00 | 0.00 | 0.00 | 82 | 974.8 |
| 20260510003557 | 58 | 161 | 0.0 | 0.0 | 0.00 | 0.00 | 0.00 | 82 | 974.8 |
| 20260510003054 | 59 | 161 | 0.0 | 1.0 | 0.00 | 0.00 | 0.00 | 79 | 974.8 |
| 20260510002554 | 59 | 161 | 0.0 | 0.0 | 0.00 | 0.00 | 0.00 | 76 | 974.5 |
| 20260510002051 | 60 | 161 | 0.0 | 1.0 | 0.00 | 0.00 | 0.00 | 76 | 974.7 |
| 20260510001548 | 60 | 161 | 0.0 | 1.0 | 0.00 | 0.00 | 0.00 | 76 | 974.4 |
| 20260510001047 | 61 | 161 | 1.0 | 1.0 | 0.00 | 0.00 | 0.00 | 70 | 974.5 |
| 20260510000542 | 62 | 158 | 0.0 | 1.0 | 0.00 | 0.00 | 0.00 | 72 | 974.3 |
| 20260510000039 | 62 | 158 | 0.0 | 0.0 | 0.00 | 0.00 | 0.00 | 71 | 974.3 |
| 20260509235535 | 62 | 158 | 1.0 | 1.0 | 0.00 | 0.00 | 0.00 | 71 | 974.2 |
| 20260509235032 | 62 | 158 | 1.0 | 1.0 | 0.00 | 0.00 | 0.00 | 71 | 974.5 |
| 20260509234528 | 64 | 153 | 2.0 | 2.0 | 0.00 | 0.00 | 0.00 | 65 | 974.3 |
| 20260509234026 | 64 | 153 | 2.0 | 2.0 | 0.00 | 0.00 | 0.00 | 65 | 974.5 |
| 20260509233523 | 65 | 277 | 1.0 | 1.0 | 0.00 | 0.00 | 0.00 | 62 | 974.4 |
| 20260509233021 | 65 | 249 | 0.0 | 1.0 | 0.00 | 0.00 | 0.00 | 66 | 974.3 |
| 20260509232517 | 65 | 249 | 0.0 | 2.0 | 0.00 | 0.00 | 0.00 | 63 | 974.2 |
| 20260509232014 | 66 | 67 | 1.0 | 2.0 | 0.00 | 0.00 | 0.00 | 60 | 974.3 |
| 20260509231510 | 67 | 97 | 0.0 | 1.0 | 0.00 | 0.00 | 0.00 | 59 | 974.2 |
| 20260509231008 | 67 | 342 | 2.0 | 2.0 | 0.00 | 0.00 | 0.00 | 57 | 974.2 |
| 20260509230505 | 67 | 268 | 0.0 | 1.0 | 0.00 | 0.00 | 0.00 | 61 | 974.2 |
| 20260509230001 | 68 | 230 | 1.0 | 1.0 | 0.00 | 0.00 | 0.00 | 57 | 974.2 |
| 20260509225457 | 68 | 230 | 1.0 | 1.0 | 0.00 | 0.00 | 0.00 | 57 | 974.3 |
| 20260509224953 | 68 | 110 | 1.0 | 2.0 | 0.00 | 0.00 | 0.00 | 57 | 974.5 |
| 20260509224449 | 68 | 179 | 1.0 | 2.0 | 0.00 | 0.00 | 0.00 | 56 | 974.4 |
| 20260509223946 | 68 | 182 | 1.0 | 2.0 | 0.00 | 0.00 | 0.00 | 56 | 974.6 |
| 20260509223442 | 67 | 182 | 0.0 | 3.0 | 0.00 | 0.00 | 0.00 | 58 | 974.5 |
| 20260509222940 | 69 | 207 | 2.0 | 4.0 | 0.00 | 0.00 | 0.00 | 55 | 974.8 |
| 20260509222435 | 68 | 223 | 1.0 | 2.0 | 0.00 | 0.00 | 0.00 | 56 | 974.6 |
| 20260509221931 | 69 | 262 | 4.0 | 6.0 | 0.00 | 0.00 | 0.00 | 56 | 974.8 |
| 20260509221428 | 69 | 199 | 2.0 | 6.0 | 0.00 | 0.00 | 0.00 | 55 | 974.7 |